KF6GPE Weather Reports


time (UTC)temp
C
wind
direction
speed
KPH
gust
KPH
rain 1hr
cm
rain 24hr
cm
rain mn
cm
humidity
%
barometer
mb
20260505201003 12 218 1.6 1.6 0.00 0.00 0.00 89 989.5
20260505200004 12 162 0.0 3.2 0.00 0.00 0.00 90 989.5
20260505195003 12 219 1.6 3.2 0.00 0.00 0.00 90 989.5
20260505194003 12 125 1.6 1.6 0.00 0.00 0.00 90 989.6
20260505193002 12 160 0.0 1.6 0.00 0.00 0.00 88 989.5
20260505192003 12 210 0.0 1.6 0.00 0.00 0.00 87 989.5
20260505191004 12 154 3.2 3.2 0.00 0.00 0.00 87 989.4
20260505190004 12 132 1.6 3.2 0.00 0.00 0.00 87 989.5
20260505185003 12 158 1.6 1.6 0.00 0.00 0.00 87 989.4
20260505184003 12 167 0.0 0.0 0.00 0.00 0.00 86 989.4
20260505183002 12 136 0.0 1.6 0.00 0.00 0.00 86 989.4
20260505182003 12 130 1.6 1.6 0.00 0.00 0.00 85 989.4
20260505181004 12 12 0.0 0.0 0.00 0.00 0.00 84 989.3
20260505180003 12 140 1.6 1.6 0.00 0.00 0.00 84 989.2
20260505175003 12 159 0.0 1.6 0.00 0.00 0.00 84 989.1
20260505174003 12 112 1.6 1.6 0.00 0.00 0.00 84 989.0
20260505173002 12 128 1.6 3.2 0.00 0.00 0.00 85 989.0
20260505172003 12 161 0.0 3.2 0.00 0.00 0.00 84 988.9
20260505171007 12 214 3.2 4.8 0.00 0.00 0.00 83 988.8
20260505170003 12 137 0.0 0.0 0.00 0.00 0.00 86 988.8
20260505165003 12 150 3.2 3.2 0.00 0.00 0.00 85 988.7
20260505164006 12 66 0.0 0.0 0.00 0.00 0.00 85 988.7
20260505163002 12 199 1.6 1.6 0.00 0.00 0.00 87 988.7
20260505162004 11 104 0.0 1.6 0.00 0.00 0.00 88 988.7
20260505161003 11 0 0.0 0.0 0.00 0.00 0.00 90 988.7
20260505153003 10 0 0.0 0.0 0.00 0.00 0.00 93 988.6
20260505152002 10 111 0.0 0.0 0.00 0.00 0.00 93 988.5
20260505151003 10 0 0.0 0.0 0.00 0.00 0.00 93 988.4
20260505125002 8 84 0.0 0.0 0.00 0.00 0.00 95 987.8
20260505124004 8 0 0.0 0.0 0.00 0.00 0.00 95 987.8
20260505123002 8 0 0.0 0.0 0.00 0.00 0.00 95 987.7
20260505122003 8 168 0.0 0.0 0.00 0.00 0.00 95 987.8
20260505121005 9 13 0.0 0.0 0.00 0.00 0.00 95 987.8
20260505120003 9 0 0.0 0.0 0.00 0.00 0.00 95 987.9
20260505115003 8 0 0.0 0.0 0.00 0.00 0.00 94 987.9
20260505114003 8 59 0.0 0.0 0.00 0.00 0.00 94 987.8
20260505113003 9 0 0.0 0.0 0.00 0.00 0.00 94 987.9
20260505112004 9 0 0.0 0.0 0.00 0.00 0.00 94 987.8
20260505111002 9 0 0.0 0.0 0.00 0.00 0.00 94 987.7
20260505102003 9 39 0.0 1.6 0.00 0.00 0.00 91 987.8
20260505101003 9 0 0.0 0.0 0.00 0.00 0.00 92 987.9
20260505100003 9 357 0.0 1.6 0.00 0.00 0.00 91 987.9
20260505095003 10 0 0.0 0.0 0.00 0.00 0.00 91 987.9
20260505094003 10 0 0.0 0.0 0.00 0.00 0.00 90 988.0
20260505093003 10 0 0.0 0.0 0.00 0.00 0.00 90 988.0
20260505092003 10 0 0.0 0.0 0.00 0.00 0.00 90 988.1
20260505091004 10 34 1.6 1.6 0.00 0.00 0.00 91 988.2
20260505090004 10 0 0.0 0.0 0.00 0.00 0.00 91 988.2
20260505085002 10 0 0.0 0.0 0.00 0.00 0.00 91 988.4
20260505084003 10 0 0.0 0.0 0.00 0.00 0.00 91 988.4
20260505083003 10 327 0.0 1.6 0.00 0.00 0.00 92 988.4
20260505082003 10 67 0.0 1.6 0.00 0.00 0.00 92 988.4
20260505081005 10 0 0.0 0.0 0.00 0.00 0.00 93 988.6
20260505080003 10 0 0.0 0.0 0.00 0.00 0.00 93 988.6
20260505075002 10 0 0.0 0.0 0.00 0.00 0.00 93 988.6
20260505074003 10 0 0.0 0.0 0.00 0.00 0.00 93 988.5
20260505073003 10 0 0.0 0.0 0.00 0.00 0.00 93 988.5
20260505072003 10 0 0.0 0.0 0.00 0.00 0.00 92 988.4
20260505071003 10 0 0.0 0.0 0.00 0.00 0.00 92 988.3
20260505070004 10 0 0.0 0.0 0.00 0.00 0.00 92 988.4
20260505065003 10 0 0.0 0.0 0.00 0.00 0.00 92 988.4
20260505064003 10 90 0.0 0.0 0.00 0.00 0.00 92 988.3
20260505063002 10 0 0.0 0.0 0.00 0.00 0.00 92 988.2
20260505062003 10 0 0.0 0.0 0.00 0.00 0.00 91 988.1
20260505061003 10 218 0.0 0.0 0.00 0.00 0.00 90 988.1
20260505060004 10 0 0.0 0.0 0.00 0.00 0.00 90 988.2
20260505055002 10 0 0.0 0.0 0.00 0.00 0.00 90 988.3
20260505054003 11 0 0.0 0.0 0.00 0.00 0.00 90 988.5
20260505053003 11 0 0.0 0.0 0.00 0.00 0.00 89 988.5
20260505052002 11 0 0.0 0.0 0.00 0.00 0.00 89 988.6
20260505051003 11 0 0.0 0.0 0.00 0.00 0.00 88 988.6
20260505041004 11 0 0.0 0.0 0.00 0.00 0.00 85 988.2
20260505040005 11 244 1.6 3.2 0.00 0.00 0.00 84 988.2
20260505035003 11 0 0.0 0.0 0.00 0.00 0.00 82 987.9
20260505034003 12 0 0.0 0.0 0.00 0.00 0.00 81 987.7
20260505033002 12 355 0.0 0.0 0.00 0.00 0.00 80 987.6
20260505032004 12 167 0.0 1.6 0.00 0.00 0.00 79 987.7
20260505031003 12 69 0.0 0.0 0.00 0.00 0.00 79 987.8
20260505030003 12 0 0.0 0.0 0.00 0.00 0.00 77 987.8
20260505025003 12 136 0.0 0.0 0.00 0.00 0.00 76 987.6
20260505024003 12 228 1.6 1.6 0.00 0.00 0.00 76 987.7
20260505023002 13 148 3.2 3.2 0.00 0.00 0.00 77 987.6
20260505022002 13 127 3.2 3.2 0.00 0.00 0.00 77 987.6
20260505021003 13 0 0.0 0.0 0.00 0.00 0.00 76 987.4
20260505020003 13 132 1.6 4.8 0.00 0.00 0.00 75 987.5
20260505015003 14 302 0.0 0.0 0.00 0.00 0.00 75 987.5
20260505014006 14 233 3.2 3.2 0.00 0.00 0.00 72 987.5
20260505013003 15 292 1.6 3.2 0.00 0.00 0.00 72 987.6
20260505012003 15 314 1.6 3.2 0.00 0.00 0.00 71 987.6
20260505011003 15 66 1.6 1.6 0.00 0.00 0.00 71 987.7
20260505010004 15 77 0.0 1.6 0.00 0.00 0.00 72 987.7
20260505005003 15 286 1.6 1.6 0.00 0.00 0.00 72 987.9
20260505004002 15 73 0.0 0.0 0.00 0.00 0.00 72 987.8
20260505003003 15 98 3.2 3.2 0.00 0.00 0.00 71 987.8
20260505002003 15 0 0.0 0.0 0.00 0.00 0.00 75 987.8
20260505001005 15 123 1.6 3.2 0.00 0.00 0.00 70 987.7
20260505000003 15 311 0.0 1.6 0.00 0.00 0.00 73 987.8
20260504235002 15 179 3.2 4.8 0.00 0.00 0.00 71 987.8
20260504234004 14 235 1.6 3.2 0.00 0.00 0.00 73 987.8
20260504233003 14 0 0.0 0.0 0.00 0.00 0.00 74 987.9
20260504232003 15 167 3.2 4.8 0.00 0.00 0.00 72 987.9
20260504231002 15 214 3.2 3.2 0.00 0.00 0.00 72 988.1
20260504230004 15 219 4.8 6.4 0.00 0.00 0.00 72 988.1
20260504225003 14 137 3.2 3.2 0.00 0.00 0.00 73 988.0
20260504224003 14 83 3.2 4.8 0.00 0.00 0.00 76 988.2
20260504223002 13 102 3.2 4.8 0.00 0.00 0.00 74 988.2
20260504222003 14 59 3.2 3.2 0.00 0.00 0.00 72 988.2
20260504221003 14 6 1.6 1.6 0.00 0.00 0.00 74 988.4
20260504220004 14 116 0.0 3.2 0.00 0.00 0.00 75 988.5
20260504215003 14 125 3.2 3.2 0.00 0.00 0.00 74 988.5
20260504214006 15 207 1.6 3.2 0.00 0.00 0.00 73 988.4
20260504213003 15 221 1.6 3.2 0.00 0.00 0.00 73 988.5
20260504212004 15 155 3.2 6.4 0.00 0.00 0.00 73 988.5
20260504211003 14 131 3.2 4.8 0.00 0.00 0.00 73 988.6
20260504210004 15 27 3.2 3.2 0.00 0.00 0.00 73 988.7
20260504205002 14 358 0.0 1.6 0.00 0.00 0.00 74 988.6
20260504204003 15 301 0.0 1.6 0.00 0.00 0.00 74 988.6
20260504203003 15 117 1.6 3.2 0.00 0.00 0.00 71 988.5
20260504202003 15 31 1.6 3.2 0.00 0.00 0.00 71 988.7